Regional Weather Roundup
Issued by NWS Goodland, KS

Home | Current Version | Previous Version | Graphics & Text | Print | Product List | Glossary On
Versions: 1 2 3 4 5 6 7 8 9 10 11 12 13 14 15 16 17 18 19 20 21 22 23 24 25 26 27 28 29 30 31 32 33 34 35 36 37 38 39 40 41 42 43 44 45 46 47 48 49 50
000
ASUS43 KGLD 200408
RWRGLD

GOODLAND FORECAST AREA HOURLY WEATHER ROUNDUP
NATIONAL WEATHER SERVICE GOODLAND KS
900 PM MST SUN NOV 19 2017

...OFFICIAL OBSERVATIONS...

CITY           SKY/WX    TMP DP  RH WIND       PRES   REMARKS
GOODLAND KS    CLOUDY    41  16  36 SW10      29.93S
HILL CITY KS   CLOUDY    40  26  57 CALM      29.94F
IMPERIAL NEB   CLOUDY    37  20  50 SW9       29.89F
MCCOOK NEB     CLOUDY    41  24  51 SW10      29.90S
AKRON CO       CLOUDY    42  13  30 SW15      29.93F
BURLINGTON CO  CLOUDY    29  14  53 SW9       29.97R
LIMON CO       CLOUDY    24  15  68 CALM      29.98F
$$

...UNOFFICIAL OBSERVATIONS...

CITY           SKY/WX    TMP DP  RH WIND       PRES   REMARKS
COLBY KS       CLOUDY    34  27  75 SW9       29.95S
LENORA KS        N/A     43  32  65 S10         N/A
NORTON KS      CLEAR     36  21  55 S7        29.90
SHARON SPRINGS   N/A     36  18  47 S10         N/A
TRENTON NEB      N/A     42  32  68 W6          N/A
KIT CARSON CO    N/A     29  14  52 MISG        N/A
YUMA CO        FAIR      32  19  59 SW13      29.91F
$$



USA.gov is the U.S. government's official web portal to all federal, state and local government web resources and services.